This is the latest recevied weather packets stored in our database for station/object K5KVN. If no packets are shown the sender has not sent any weather packets the latest 10 day(s).
| Time | Temp. | Humidity | Pressure | Rain* | Wind** | Luminosity | Snow |
|---|---|---|---|---|---|---|---|
| 1777670169 | 18.89° C | 33% | 1016.7 hPa | 0 mm | - | - | - |
| 1777669569 | 18.89° C | 32% | 1016.7 hPa | 0 mm | - | - | - |
| 1777668969 | 19.44° C | 35% | 1016.8 hPa | 0 mm | - | - | - |
| 1777668370 | 19.44° C | 36% | 1017 hPa | 0 mm | - | - | - |
| 1777667769 | 19.44° C | 39% | 1017.3 hPa | 0 mm | - | - | - |
| 1777667169 | 18.89° C | 36% | 1017.7 hPa | 0 mm | - | - | - |
| 1777665967 | 18.89° C | 40% | 1018.2 hPa | 0 mm | - | - | - |
| 1777665427 | 19.44° C | 39% | 1018.5 hPa | 0 mm | - | - | - |
| 1777664767 | 19.44° C | 41% | 1018.7 hPa | 0 mm | - | - | - |
| 1777664227 | 18.33° C | 39% | 1018.8 hPa | 0 mm | - | - | - |
| 1777663567 | 18.89° C | 43% | 1019 hPa | 0 mm | - | - | - |
| 1777662969 | 18.89° C | 46% | 1019.2 hPa | 0 mm | - | - | - |
| 1777662366 | 18.89° C | 37% | 1019.3 hPa | 0 mm | - | - | - |
| 1777661766 | 18.89° C | 45% | 1019.4 hPa | 0 mm | - | - | - |
| 1777661224 | 18.33° C | 44% | 1019.5 hPa | 0 mm | - | - | - |
| 1777660626 | 18.33° C | 47% | 1019.6 hPa | 0 mm | - | - | - |
| 1777659962 | 18.33° C | 48% | 1019.8 hPa | 0 mm | - | - | - |
| 1777659423 | 17.78° C | 52% | 1019.8 hPa | 0 mm | - | - | - |
| 1777658763 | 17.78° C | 54% | 1019.9 hPa | 0 mm | - | - | - |
| 1777658221 | 17.22° C | 47% | 1019.9 hPa | 0 mm | - | - | - |
| 1777657622 | 17.78° C | 54% | 1019.9 hPa | 0 mm | - | - | - |
| 1777656959 | 17.78° C | 56% | 1020 hPa | 0 mm | - | - | - |
| 1777656359 | 17.22° C | 57% | 1020.2 hPa | 0 mm | - | - | - |
| 1777655757 | 17.22° C | 59% | 1020.2 hPa | 0 mm | - | - | - |
| 1777655155 | 17.22° C | 58% | 1020.2 hPa | 0 mm | - | - | - |
* Rain latest hour (hover to see other rain measurements)
** Current wind speed in m/s (hover to see current wind gust speed)